Theta_e
336 335 334 331 331 337 331 340 338 337 333 332 331 334 334 334 333 334 336 336 336 336 336 333 332 332 330 329 331 331 330 329 329 330 331 332 332 332 331 331 331 332 331
334 334 335 332 332 333 338 341 339 337 335 335 332 332 334 336 334 335 335 335 335 333 332 331 331 329 328 328 328 326 327 327 327 327 329 330 330 330 329 329 329 329 329
331 336 330 329 330 334 339 339 338 337 337 335 334 332 334 335 335 333 332 331 331 331 330 329 328 328 328 328 325 324 323 323 324 324 324 325 326 326 325 324 325 325 325
336 338 336 330 328 334 338 339 338 339 337 335 333 334 334 334 333 332 331 330 330 329 329 328 328 327 328 327 323 323 323 323 323 324 323 322 323 324 324 323 323 323 322
338 336 337 331 326 331 336 337 337 338 337 336 334 331 332 332 331 331 331 330 330 329 331 329 329 327 326 323 324 324 322 323 323 323 323 323 321 321 321 320 320 320 320
338 336 336 335 328 326 329 336 338 336 335 333 331 330 331 331 331 330 330 330 330 333 333 330 327 324 322 322 323 323 322 322 321 320 320 319 320 320 319 319 319 318 318
337 336 335 333 330 329 333 335 337 335 332 327 331 331 330 331 329 329 330 331 330 331 330 329 322 318 318 320 320 320 320 319 319 319 319 319 319 320 319 319 318 317 315
336 335 332 330 328 330 330 331 333 331 330 332 330 330 330 331 330 329 329 327 326 327 329 323 317 314 314 315 315 316 316 318 318 319 319 319 319 318 318 317 316 315 315
333 335 332 330 327 325 324 328 328 331 329 331 329 328 330 330 329 329 326 322 324 326 323 320 314 311 312 311 313 315 316 318 318 318 318 318 318 318 317 316 316 314 314
332 333 331 329 327 325 325 325 327 326 327 327 328 328 329 330 329 326 319 320 321 323 322 316 313 313 312 312 313 315 315 317 318 318 318 318 318 317 317 316 315 314 313
332 332 331 331 330 326 325 326 325 326 325 325 328 327 329 329 327 319 322 320 320 322 320 317 314 314 312 312 313 315 317 318 318 319 318 318 318 317 316 315 315 314 313
330 332 331 331 331 329 328 326 323 325 325 325 329 327 327 326 320 320 318 320 321 321 319 317 316 314 316 317 315 315 317 318 318 319 318 318 318 317 316 315 314 313 312
329 330 331 330 331 329 326 321 324 325 324 325 328 325 323 318 314 314 316 321 321 320 323 320 316 319 318 317 316 316 318 318 318 319 318 317 317 317 316 314 313 312 311
327 328 328 328 327 326 322 322 324 324 324 323 326 321 315 314 316 313 312 313 313 317 321 319 318 316 313 312 311 312 317 317 318 319 318 318 318 317 316 314 313 312 311
326 326 328 328 326 324 322 321 320 322 322 323 322 317 314 315 313 313 312 312 312 313 314 315 316 315 313 312 311 312 315 317 318 318 318 318 318 318 317 316 314 313 311
324 323 323 324 324 322 321 320 322 320 322 324 321 315 313 313 312 311 312 312 312 311 312 313 313 313 314 312 311 313 312 314 316 318 318 319 318 318 319 317 316 314 312
324 324 321 320 321 322 320 320 319 322 319 321 322 314 314 314 312 311 311 312 313 313 312 311 311 311 311 313 313 312 312 311 310 311 315 318 318 318 318 318 317 316 314
324 324 322 320 319 321 320 319 320 319 318 320 319 319 316 314 313 312 312 312 315 314 313 312 310 309 311 311 310 310 309 308 308 308 309 315 316 316 318 318 317 315 315
322 324 323 322 319 319 320 320 321 320 319 318 317 320 318 314 314 313 313 313 315 316 314 313 310 308 308 309 308 308 308 308 307 307 307 308 310 313 316 317 317 316 314
321 322 323 322 321 320 320 320 320 321 319 317 317 321 320 316 315 314 314 313 314 316 315 314 311 310 309 308 307 307 307 307 307 307 308 308 308 310 312 315 316 315 314
320 320 322 322 321 321 320 320 319 321 319 318 318 321 321 317 316 315 315 314 314 314 316 316 313 312 310 308 308 307 307 306 307 307 307 307 307 307 308 309 313 314 313
320 320 320 321 321 320 321 320 320 320 319 319 320 321 320 317 317 316 316 316 315 314 314 316 316 314 314 311 311 310 313 310 306 307 306 306 307 307 310 307 310 309 311
319 320 319 320 321 321 320 320 320 319 318 317 319 320 318 317 316 316 317 319 319 318 317 317 318 317 316 313 312 315 314 317 312 309 307 306 306 307 308 308 307 308 308
319 319 319 319 319 320 319 320 319 319 319 317 316 318 321 321 319 320 321 321 321 321 321 322 321 320 318 317 311 311 312 313 316 314 309 308 306 306 306 306 307 307 307
319 319 318 319 320 319 319 319 319 320 319 319 317 315 316 319 319 320 318 319 319 319 321 321 321 321 320 318 315 313 311 309 309 310 316 309 307 307 307 307 307 306 306
317 316 317 318 319 319 320 319 319 318 318 318 317 316 317 315 316 315 315 315 315 315 318 321 322 321 321 319 316 315 313 312 309 308 309 311 308 310 309 309 308 306 305
Wind_Speed
24 27 31 30 29 32 30 34 36 36 38 37 39 37 33 33 34 32 32 32 29 27 26 25 25 24 24 24 24 27 29 31 31 30 31 29 29 29 29 30 29 30 31
25 29 29 26 27 31 32 36 35 36 38 41 41 38 35 34 34 33 32 32 31 28 27 26 26 26 25 26 27 30 31 32 31 30 30 29 28 28 29 29 29 29 29
23 20 25 24 25 26 33 35 35 36 39 39 39 38 34 33 33 33 32 33 33 30 28 27 27 26 25 27 31 31 31 29 29 30 26 24 25 24 26 29 27 27 27
20 19 22 30 30 31 34 36 35 35 36 37 38 37 33 33 33 34 34 34 33 31 29 28 27 26 26 28 30 30 30 30 30 28 25 24 24 24 25 27 27 27 27
25 25 23 32 33 32 33 34 35 35 34 31 35 35 32 34 35 35 35 34 33 31 30 28 26 26 27 29 30 31 30 29 28 25 24 24 24 23 25 26 27 26 27
27 27 26 30 36 37 31 33 35 36 35 35 30 34 34 34 35 34 34 32 32 28 26 26 25 26 29 29 30 31 31 31 25 24 25 22 24 24 24 26 25 25 26
22 25 29 30 31 33 33 33 34 35 34 33 33 36 36 35 36 34 33 31 29 27 25 25 26 27 28 27 27 26 26 26 24 24 23 23 24 24 24 26 25 25 25
20 28 31 30 29 31 33 33 33 32 32 33 37 37 36 35 35 34 30 29 28 28 30 30 27 28 27 26 26 26 28 28 25 23 23 22 23 24 23 24 24 24 24
18 30 30 31 31 27 30 31 30 31 32 35 38 39 35 35 35 32 30 29 29 30 33 30 28 28 27 27 27 27 28 27 24 23 23 22 21 22 23 22 23 23 23
15 22 19 27 25 28 28 30 31 30 31 31 38 38 36 34 34 31 28 27 30 32 33 30 28 27 27 27 26 26 26 27 22 22 20 21 21 20 21 21 21 22 22
11 23 22 25 32 34 31 25 30 31 31 30 38 38 37 32 31 30 25 28 31 33 32 29 29 26 26 26 25 26 23 18 19 19 19 21 20 19 19 20 20 20 20
4 12 27 25 32 32 31 28 34 34 33 35 34 40 33 36 33 27 29 30 33 33 31 28 28 27 23 20 22 22 17 18 17 17 18 19 19 19 18 18 19 18 17
9 10 21 26 32 34 32 36 33 38 32 29 34 35 36 38 34 34 32 29 30 31 25 25 27 19 19 18 19 17 18 17 16 15 17 16 16 16 16 15 16 16 16
11 15 15 28 30 32 31 35 33 34 36 31 37 38 42 38 32 37 35 31 31 28 28 27 23 23 21 20 20 21 17 15 14 14 15 16 14 13 13 13 14 14 14
15 15 19 26 28 22 33 30 31 33 34 29 37 38 41 36 35 33 33 32 31 30 29 28 26 24 22 20 19 18 17 14 14 12 13 16 15 15 15 12 12 12 12
11 13 18 19 21 23 36 33 28 33 35 21 34 37 38 39 37 34 32 30 29 27 27 26 24 23 21 20 20 18 17 15 14 13 12 14 13 14 15 14 13 12 11
17 16 15 17 23 28 31 34 30 35 36 21 27 33 35 37 36 34 31 28 26 25 25 23 22 21 21 18 17 17 16 15 14 15 13 12 13 13 14 14 13 13 12
15 22 22 23 30 33 29 31 30 35 34 26 28 30 30 34 34 34 32 28 25 24 23 21 21 20 18 16 16 15 15 14 14 13 14 13 13 12 13 15 15 14 13
15 19 24 29 34 36 33 27 30 35 39 36 33 25 28 32 31 31 30 29 25 23 22 20 20 19 19 17 15 14 15 13 12 13 13 13 14 13 13 16 17 15 15
14 17 23 25 29 32 34 34 28 29 37 41 41 26 31 30 30 30 28 26 25 23 21 20 18 17 16 15 10 13 15 13 15 17 14 14 15 16 15 13 14 15 18
12 15 22 29 24 34 29 30 31 30 33 37 38 32 33 31 31 30 26 25 24 25 23 20 17 17 17 17 9 6 10 15 18 18 18 18 18 17 17 17 15 15 19
13 15 21 25 30 31 30 25 27 28 32 33 35 33 31 31 31 29 26 25 26 25 22 21 22 16 11 18 9 4 3 8 19 23 23 22 20 17 16 19 20 22 21
16 18 18 25 31 32 30 27 25 29 26 27 34 30 30 30 31 29 26 25 27 24 25 26 24 22 16 18 22 8 3 6 3 9 23 26 25 21 19 21 24 25 25
20 17 18 22 29 33 33 28 28 30 27 29 33 36 31 28 30 29 25 26 24 22 21 25 23 24 20 17 16 27 19 5 5 3 8 14 22 26 26 26 24 27 28
24 23 21 23 25 28 35 36 30 27 27 25 30 36 32 28 31 30 26 23 23 20 26 27 26 26 28 19 21 12 20 16 15 7 7 7 15 19 23 25 27 24 24
24 25 23 25 25 27 30 35 32 27 28 26 30 35 33 35 32 32 30 28 26 24 23 24 25 25 28 28 26 20 17 11 15 13 7 19 10 10 19 18 23 26 25
Wind_Direction
181 171 169 170 162 171 172 173 168 164 158 159 148 151 142 139 139 138 137 133 131 126 122 120 119 116 113 111 109 107 107 105 103 98 96 95 93 90 89 87 83 84 83
175 170 168 156 156 157 165 166 163 159 158 155 150 150 145 146 142 141 140 136 128 124 123 122 119 118 116 113 112 114 112 109 108 103 96 93 90 90 89 90 88 84 82
178 174 173 173 171 164 163 166 163 161 160 153 150 147 149 146 141 139 136 132 128 128 125 124 122 119 119 117 115 113 112 113 111 107 101 100 95 92 88 86 87 85 83
179 175 172 169 163 163 163 163 164 160 156 156 151 146 149 142 139 137 135 132 131 127 124 122 122 123 122 122 121 119 117 116 114 104 103 101 98 94 93 90 88 87 87
180 182 177 178 170 165 159 159 161 159 154 151 148 147 145 142 141 140 138 136 131 131 124 127 124 124 126 128 124 122 121 120 107 103 102 100 99 95 96 95 92 91 89
179 182 179 182 176 171 165 161 163 163 161 157 150 145 146 144 143 144 141 137 139 139 130 130 127 125 128 126 126 124 126 122 108 106 104 102 101 102 99 97 95 93 92
171 180 176 182 179 169 165 160 162 161 159 158 154 146 144 147 147 149 144 145 142 140 139 137 128 129 126 129 128 130 129 118 110 108 108 107 109 107 103 102 102 100 96
189 188 185 183 171 163 158 161 163 162 159 157 154 146 147 149 150 149 146 147 146 144 142 136 132 128 125 128 128 129 128 118 113 112 110 112 115 112 111 110 108 105 104
215 191 184 181 181 176 170 167 165 166 164 162 152 147 150 151 150 149 153 154 150 146 139 138 133 130 127 126 129 130 129 120 118 117 116 118 118 117 116 114 112 108 107
216 218 185 189 180 180 177 170 168 165 165 161 153 146 149 149 153 155 153 151 151 146 144 139 136 133 127 126 128 130 128 122 122 119 119 123 121 120 118 118 114 112 108
216 211 205 177 183 183 184 182 179 170 168 167 153 150 151 147 152 149 149 149 149 148 145 143 140 135 131 127 128 130 125 123 122 118 121 128 126 124 122 120 117 112 107
181 202 210 202 195 194 200 194 181 168 169 171 150 154 149 154 152 146 149 150 150 150 150 149 143 141 132 129 130 133 128 131 125 122 129 133 129 129 126 122 119 114 109
197 163 184 195 206 195 192 182 174 164 167 171 159 153 153 152 152 148 149 150 152 153 150 150 150 147 143 140 140 137 140 135 133 128 135 136 133 131 131 126 123 121 118
162 175 159 185 188 195 174 176 162 164 164 173 162 159 152 151 156 156 156 154 156 157 158 160 162 152 147 144 143 144 145 143 139 137 146 144 141 137 137 134 131 131 129
158 166 177 184 189 185 175 166 160 164 169 175 163 161 156 155 159 158 158 157 158 160 162 160 161 154 153 152 154 149 150 153 150 146 154 160 161 155 152 150 145 141 141
163 159 170 176 185 146 155 165 166 171 172 164 167 167 165 163 162 164 162 158 157 159 161 162 160 158 160 161 164 160 157 160 164 166 160 172 174 173 165 161 160 160 159
178 164 162 156 168 150 148 162 160 169 169 173 173 171 175 171 167 165 169 163 161 166 166 164 165 164 165 167 167 167 165 167 170 175 178 177 185 188 185 178 175 178 178
188 175 170 166 164 163 156 160 166 170 175 174 183 188 187 174 176 174 174 172 168 170 171 167 168 163 166 170 174 174 176 180 184 182 187 190 191 190 195 201 197 194 194
194 181 166 174 173 170 174 170 168 173 174 183 197 205 196 183 183 181 180 177 175 177 180 174 171 166 170 178 184 185 189 195 194 201 201 201 202 201 197 210 216 213 209
191 188 178 159 172 173 176 187 183 176 185 189 200 213 200 194 192 191 187 184 182 185 187 182 178 175 178 181 183 194 203 211 212 214 212 213 213 210 209 210 218 222 229
182 179 175 178 167 165 167 170 181 179 175 189 201 214 202 199 198 199 194 193 194 197 195 192 187 187 187 192 177 201 224 226 229 229 227 225 223 219 220 219 220 223 227
189 185 184 182 185 171 176 173 182 182 187 197 202 206 199 202 203 204 201 201 205 204 207 205 202 193 196 196 192 185 225 236 240 235 235 233 232 228 227 228 227 230 228
198 189 184 186 189 181 180 176 177 181 180 186 191 189 197 201 207 205 205 206 215 210 216 218 213 212 202 206 211 209 185 233 211 220 233 236 241 236 236 237 238 235 234
199 197 190 188 185 191 188 188 179 179 179 189 190 194 193 199 203 204 214 214 214 217 227 228 229 226 220 213 213 225 231 219 223 234 238 234 235 237 240 243 241 242 238
197 195 192 192 191 187 190 196 194 195 197 188 194 206 207 218 214 216 211 208 218 224 237 237 235 231 234 225 221 216 227 231 234 219 259 220 228 234 234 241 248 243 246
200 197 196 194 194 192 191 194 198 196 195 195 202 204 206 217 219 221 224 226 227 230 238 241 242 241 239 238 241 229 223 216 217 214 227 247 224 238 237 239 250 248 248